Weather History for Riverton, WY

Change the Weather History Date:

Thursday, August 1, 2013

  Actual Average Record
Temperature  
Mean Temperature 75 °F 73 °F  
Max Temperature 93 °F 89 °F 99 °F (2008)
Min Temperature 56 °F 57 °F 47 °F (2009)
Degree Days  
Heating Degree Days 0 0  
Month to date heating degree days 0 0  
Since 1 June heating degree days 52 131  
Since 1 July heating degree days 0 12  
Cooling Degree Days 10 8  
Month to date cooling degree days 10 8  
Year to date cooling degree days 467 303  
Since 1 June cooling degree days 454 294  
Growing Degree Days 23 (Base 50)    
Moisture  
Dew Point 43 °F    
Average Humidity 43    
Maximum Humidity 72    
Minimum Humidity 13    
Precipitation  
Precipitation 0.00 in 0.02 in 0.10 in (2006)
Month to date precipitation 0.00 0.02  
Year to date precipitation 4.03 6.27  
Snow  
Snow 0.00 in - - ()
Month to date snowfall 0.0  
Since 1 June snowfall 0.0  
Since 1 July snowfall 0.0  
Snow Depth 0.00 in    
Sea Level Pressure  
Sea Level Pressure 29.86 in    
Wind  
Wind Speed 10 mph (WSW)    
Max Wind Speed 40 mph    
Max Gust Speed 49 mph    
Visibility 10 miles    
Events      
T = Trace of Precipitation, MM = Missing Value Source: NWS Daily Summary

Daily Weather History Graph

Daily Weather History Graph

Search for Another Location

Airport:

Trip Planner

Search our weather history database for the weather conditions in past years. The results will help you decide how hot, cold, wet, or windy it might be!

Date:

Astronomy

Aug. 01, 2013 Rise Set
Actual Time 6:04 AM MDT 8:34 PM MDT
Civil Twilight 5:32 AM MDT 9:06 PM MDT
Nautical Twilight 4:52 AM MDT 9:46 PM MDT
Astronomical Twilight 4:06 AM MDT 10:31 PM MDT
Moon 1:42 AM MDT (8/1) 4:47 PM MDT (8/1)
Length of Visible Light 15h 34m
Length of Day
14h 29m
Waning Crescent, 23% of the Moon is Illuminated
Aug 1
Waning Crescent
Aug 6
New
Aug 14
First Quarter
Aug 20
Full
Aug 28
Last Quarter

Hourly Weather History & Observations

Time (MDT) Temp. Dew Point Humidity Pressure Visibility Wind Dir Wind Speed Gust Speed Precip Events Conditions
12:53 AM 64.9 °F 45.0 °F 48% 30.03 in 10.0 mi NW 3.5 mph - N/A   Clear
1:53 AM 61.0 °F 44.1 °F 54% 30.02 in 10.0 mi North 3.5 mph - N/A   Clear
2:53 AM 59.0 °F 44.1 °F 58% 30.01 in 10.0 mi NW 8.1 mph - N/A   Clear
3:53 AM 59.0 °F 45.0 °F 60% 29.99 in 10.0 mi NE 3.5 mph - N/A   Clear
4:53 AM 57.9 °F 46.9 °F 67% 29.98 in 10.0 mi NW 11.5 mph - N/A   Clear
5:53 AM 55.9 °F 46.0 °F 69% 30.00 in 10.0 mi NW 9.2 mph - N/A   Clear
6:53 AM 59.0 °F 45.0 °F 60% 29.99 in 10.0 mi NW 8.1 mph - N/A   Clear
7:53 AM 64.9 °F 46.0 °F 50% 29.99 in 10.0 mi Calm Calm - N/A   Clear
8:53 AM 68.0 °F 46.0 °F 45% 29.99 in 10.0 mi Calm Calm - N/A   Clear
9:53 AM 70.0 °F 46.0 °F 42% 29.96 in 10.0 mi SSW 6.9 mph - N/A   Clear
10:53 AM 73.9 °F 45.0 °F 35% 29.94 in 10.0 mi Variable 4.6 mph - N/A   Clear
11:53 AM 78.1 °F 46.0 °F 32% 29.91 in 10.0 mi ENE 8.1 mph - N/A   Clear
12:53 PM 82.0 °F 45.0 °F 27% 29.86 in 10.0 mi ENE 6.9 mph - N/A   Clear
1:53 PM 84.9 °F 43.0 °F 23% 29.83 in 10.0 mi Variable 3.5 mph - N/A   Clear
2:53 PM 88.0 °F 39.0 °F 18% 29.79 in 10.0 mi Calm Calm - N/A   Clear
3:53 PM 91.0 °F 37.0 °F 15% 29.74 in 10.0 mi East 6.9 mph - N/A   Clear
4:53 PM 91.0 °F 35.1 °F 14% 29.70 in 10.0 mi SSW 8.1 mph - N/A   Clear
5:53 PM 91.0 °F 33.1 °F 13% 29.68 in 10.0 mi Variable 4.6 mph - N/A   Clear
6:53 PM 84.0 °F 41.0 °F 22% 29.69 in 8.0 mi South 36.8 mph 49.5 mph N/A   Clear
7:00 PM 84.2 °F 42.8 °F 23% 29.90 in 10.0 mi South 34.5 mph 48.3 mph N/A   Clear
7:53 PM 81.0 °F 41.0 °F 24% 29.70 in 10.0 mi South 26.5 mph 38.0 mph N/A   Clear
8:53 PM 79.0 °F 43.0 °F 28% 29.71 in 10.0 mi South 18.4 mph 24.2 mph N/A   Clear
9:53 PM 77.0 °F 43.0 °F 30% 29.71 in 10.0 mi SW 11.5 mph 20.7 mph N/A   Clear
10:53 PM 75.9 °F 41.0 °F 29% 29.70 in 10.0 mi SSW 12.7 mph - N/A   Clear
11:53 PM 73.9 °F 39.9 °F 29% 29.71 in 10.0 mi SW 18.4 mph - N/A   Clear